TimeAST,TemperatureF,Dew PointF,Humidity,Sea Level PressureIn,VisibilityMPH,Wind Direction,Wind SpeedMPH,Gust SpeedMPH,PrecipitationIn,Events,Conditions,WindDirDegrees,DateUTC
12:00 AM,6.8,3.6,87,30.04,-9999.0,ESE,1.2,-,N/A,,Unknown,110,2013-02-06 04:00:00
1:00 AM,7.5,3.6,84,30.02,-9999.0,ENE,4.6,-,N/A,,Unknown,60,2013-02-06 05:00:00
2:00 AM,7,3,78,30.01,,ENE,3.5,,,,,60,2013-02-06 06:00:00
2:00 AM,7.0,3.4,85,30.01,-9999.0,ENE,3.5,-,N/A,,Unknown,60,2013-02-06 06:00:00
3:00 AM,7.0,3.4,85,30.01,-9999.0,ENE,3.5,-,N/A,,Unknown,60,2013-02-06 07:00:00
4:00 AM,7.0,3.4,85,30.00,-9999.0,ENE,3.5,-,N/A,,Unknown,70,2013-02-06 08:00:00
5:00 AM,5.9,2.7,87,29.99,-9999.0,East,3.5,-,N/A,,Unknown,80,2013-02-06 09:00:00
6:00 AM,4.8,2.1,89,30.01,-9999.0,East,4.6,-,N/A,,Unknown,100,2013-02-06 10:00:00
7:00 AM,6.3,1.2,80,30.01,-9999.0,East,3.5,-,N/A,,Unknown,80,2013-02-06 11:00:00
8:00 AM,6,0,68,30.03,,East,3.5,,,,,80,2013-02-06 12:00:00
8:00 AM,5.7,0.5,79,30.03,-9999.0,East,3.5,-,N/A,,Unknown,80,2013-02-06 12:00:00
9:00 AM,7.7,0.1,71,30.04,-9999.0,NE,2.3,-,N/A,,Unknown,40,2013-02-06 13:00:00
10:00 AM,14.2,-2.0,49,30.02,-9999.0,ESE,5.8,-,N/A,,Unknown,120,2013-02-06 14:00:00
11:00 AM,18.7,-0.9,42,30.02,-9999.0,SE,4.6,-,N/A,,Unknown,140,2013-02-06 15:00:00
1:00 PM,25.7,3.0,38,29.97,-9999.0,SSE,3.5,-,N/A,,Unknown,160,2013-02-06 17:00:00
2:00 PM,27,6,27,29.95,,SSE,3.5,,,,,160,2013-02-06 18:00:00
2:00 PM,27.3,6.4,41,29.95,-9999.0,SSE,3.5,-,N/A,,Unknown,160,2013-02-06 18:00:00
3:00 PM,28.0,10.8,48,29.94,-9999.0,SW,3.5,-,N/A,,Unknown,230,2013-02-06 19:00:00
4:00 PM,27.1,15.8,62,29.94,-9999.0,South,4.6,-,N/A,,Unknown,190,2013-02-06 20:00:00
5:00 PM,27.1,18.9,71,29.94,-9999.0,South,6.9,-,N/A,,Unknown,190,2013-02-06 21:00:00
6:00 PM,25.0,23.2,93,29.95,-9999.0,South,5.8,-,N/A,,Unknown,190,2013-02-06 22:00:00
7:00 PM,24.4,23.0,94,29.96,-9999.0,South,5.8,-,N/A,,Unknown,190,2013-02-06 23:00:00
8:00 PM,25,24,92,29.97,,SW,2.3,,,,,220,2013-02-07 00:00:00
8:00 PM,24.6,23.5,96,29.97,-9999.0,SW,2.3,-,N/A,,Unknown,220,2013-02-07 00:00:00
9:00 PM,24.8,24.1,97,30.00,-9999.0,NW,1.2,-,N/A,,Unknown,320,2013-02-07 01:00:00
10:00 PM,24.6,23.9,97,30.00,-9999.0,West,2.3,-,N/A,,Unknown,260,2013-02-07 02:00:00
11:00 PM,22.3,21.6,97,30.02,-9999.0,NW,3.5,-,N/A,,Unknown,320,2013-02-07 03:00:00